,,,PA_Meas_PMT16A,,PR_Meas_QMR101_102,,RH_Meas_QMH101,,SR_Meas_QMS101,,TA_Meas_QMH101,,GenWind,,GenWind,
date,time,status,PA,status,PR,status,RH,status,SR,status,TA,status,DirAvg,status,SpdAvg,
2009-10-20, 00:00:04,VALID,1005.82,VALID,0,VALID,92.8664,VALID,0,VALID,24.2662,VALID,26,VALID,0,
2009-10-20, 00:01:04,VALID,1005.82,VALID,0,VALID,92.8664,VALID,0.100563,VALID,24.2662,VALID,26,VALID,0,
2009-10-20, 00:02:04,VALID,1005.81,VALID,0,VALID,92.874,VALID,0.100563,VALID,24.2662,VALID,26,VALID,0,
2009-10-20, 00:03:04,VALID,1005.76,VALID,0,VALID,92.9198,VALID,0,VALID,24.2662,VALID,26,VALID,0,
2009-10-20, 00:04:04,VALID,1005.72,VALID,0,VALID,92.935,VALID,0,VALID,24.2857,VALID,26,VALID,0,
2009-10-20, 00:05:04,VALID,1005.74,VALID,0,VALID,92.9503,VALID,0.100563,VALID,24.2468,VALID,26,VALID,0,
2009-10-20, 00:06:04,VALID,1005.71,VALID,0,VALID,93.0189,VALID,0,VALID,24.2449,VALID,26,VALID,0,
2009-10-20, 00:07:04,VALID,1005.67,VALID,0,VALID,93.0418,VALID,0.100563,VALID,24.2468,VALID,26,VALID,0,
2009-10-20, 00:08:04,VALID,1005.67,VALID,0,VALID,93.0647,VALID,0.100563,VALID,24.2468,VALID,26,VALID,0,
2009-10-20, 00:09:04,VALID,1005.65,VALID,0,VALID,93.0266,VALID,0,VALID,24.2273,VALID,26,VALID,0,
2009-10-20, 00:10:04,VALID,1005.65,VALID,0,VALID,93.0495,VALID,0,VALID,24.2273,VALID,26,VALID,0,
2009-10-20, 00:11:04,VALID,1005.63,VALID,0,VALID,93.0571,VALID,0,VALID,24.2097,VALID,26,VALID,0,
2009-10-20, 00:12:04,VALID,1005.61,VALID,0,VALID,93.1105,VALID,0,VALID,24.1884,VALID,26,VALID,0,
2009-10-20, 00:13:04,VALID,1005.58,VALID,0,VALID,93.1181,VALID,0,VALID,24.1513,VALID,26,VALID,0,
2009-10-20, 00:14:04,VALID,1005.59,VALID,0,VALID,93.202,VALID,0,VALID,24.1513,VALID,26,VALID,0,
2009-10-20, 00:15:04,VALID,1005.57,VALID,0,VALID,93.2478,VALID,0,VALID,24.1513,VALID,26,VALID,0,
2009-10-20, 00:16:04,VALID,1005.55,VALID,0,VALID,93.3165,VALID,0,VALID,24.1513,VALID,26,VALID,0,
2009-10-20, 00:17:04,VALID,1005.56,VALID,0,VALID,93.3775,VALID,0,VALID,24.13,VALID,26,VALID,0,
2009-10-20, 00:18:04,VALID,1005.53,VALID,0,VALID,93.4233,VALID,0,VALID,24.1513,VALID,26,VALID,0,
2009-10-20, 00:19:04,VALID,1005.53,VALID,0,VALID,93.4767,VALID,0,VALID,24.1513,VALID,26,VALID,0,
2009-10-20, 00:20:04,VALID,1005.51,VALID,0,VALID,93.4309,VALID,0,VALID,24.1105,VALID,26,VALID,0,
2009-10-20, 00:21:04,VALID,1005.54,VALID,0,VALID,93.4156,VALID,0,VALID,24.1318,VALID,26,VALID,0,
2009-10-20, 00:22:04,VALID,1005.54,VALID,0,VALID,93.4156,VALID,0,VALID,24.0929,VALID,26,VALID,0,
2009-10-20, 00:23:04,VALID,1005.54,VALID,0,VALID,93.4233,VALID,0,VALID,24.0716,VALID,26,VALID,0,
2009-10-20, 00:24:04,VALID,1005.54,VALID,0,VALID,93.4614,VALID,0,VALID,24.0734,VALID,26,VALID,0,
2009-10-20, 00:25:04,VALID,1005.51,VALID,0,VALID,93.4843,VALID,0,VALID,24.0734,VALID,26,VALID,0,
2009-10-20, 00:26:04,VALID,1005.5,VALID,0,VALID,93.5148,VALID,0,VALID,24.0734,VALID,26,VALID,0,
2009-10-20, 00:27:04,VALID,1005.49,VALID,0,VALID,93.5682,VALID,0,VALID,24.0734,VALID,26,VALID,0,
2009-10-20, 00:28:04,VALID,1005.49,VALID,0,VALID,93.6064,VALID,0,VALID,24.0521,VALID,26,VALID,0,
2009-10-20, 00:29:04,VALID,1005.49,VALID,0,VALID,93.6369,VALID,0,VALID,24.0716,VALID,26,VALID,0,
2009-10-20, 00:30:04,VALID,1005.47,VALID,0,VALID,93.6674,VALID,0,VALID,24.0929,VALID,26,VALID,0,
2009-10-20, 00:31:04,VALID,1005.49,VALID,0,VALID,93.7208,VALID,0,VALID,24.1123,VALID,26,VALID,0,
2009-10-20, 00:32:04,VALID,1005.49,VALID,0,VALID,93.7132,VALID,0,VALID,24.1123,VALID,26,VALID,0,
2009-10-20, 00:33:04,VALID,1005.49,VALID,0,VALID,93.6826,VALID,0,VALID,24.1123,VALID,26,VALID,0,
2009-10-20, 00:34:04,VALID,1005.46,VALID,0,VALID,93.6674,VALID,0,VALID,24.1123,VALID,26,VALID,0,
2009-10-20, 00:35:04,VALID,1005.5,VALID,0,VALID,93.6369,VALID,0,VALID,24.1531,VALID,26,VALID,0,
2009-10-20, 00:36:04,VALID,1005.48,VALID,0,VALID,93.5987,VALID,0,VALID,24.1318,VALID,26,VALID,0,
2009-10-20, 00:37:04,VALID,1005.48,VALID,0,VALID,93.5758,VALID,0,VALID,24.1123,VALID,26,VALID,0,
2009-10-20, 00:38:04,VALID,1005.48,VALID,0,VALID,93.5987,VALID,0,VALID,24.1318,VALID,26,VALID,0,
2009-10-20, 00:39:04,VALID,1005.47,VALID,0,VALID,93.6292,VALID,0,VALID,24.0929,VALID,19,VALID,0,
2009-10-20, 00:40:04,VALID,1005.44,VALID,0,VALID,93.6521,VALID,0,VALID,24.1123,VALID,17,VALID,0.612891,
2009-10-20, 00:41:04,VALID,1005.41,VALID,0,VALID,93.7284,VALID,0,VALID,24.091,VALID,17,VALID,0.675781,
2009-10-20, 00:42:04,VALID,1005.39,VALID,0,VALID,93.7971,VALID,0,VALID,24.1123,VALID,15,VALID,0.507813,
2009-10-20, 00:43:04,VALID,1005.4,VALID,0,VALID,93.8123,VALID,0,VALID,24.1123,VALID,15,VALID,0.657031,
2009-10-20, 00:44:04,VALID,1005.38,VALID,0,VALID,93.8352,VALID,0,VALID,24.1123,VALID,15,VALID,0.45,
2009-10-20, 00:45:04,VALID,1005.37,VALID,0,VALID,93.8657,VALID,0,VALID,24.0929,VALID,15,VALID,0.291016,
2009-10-20, 00:46:04,VALID,1005.37,VALID,0,VALID,93.8963,VALID,0,VALID,24.0929,VALID,15,VALID,0.0746094,
2009-10-20, 00:47:04,VALID,1005.37,VALID,0,VALID,93.9115,VALID,0,VALID,24.0521,VALID,15,VALID,0.132031,
2009-10-20, 00:48:04,VALID,1005.37,VALID,0,VALID,93.9344,VALID,0,VALID,24.0734,VALID,15,VALID,0.109766,
2009-10-20, 00:49:04,VALID,1005.38,VALID,0,VALID,93.9725,VALID,0,VALID,24.0521,VALID,15,VALID,0.0808594,
2009-10-20, 00:50:04,VALID,1005.36,VALID,0,VALID,93.9649,VALID,0,VALID,24.0539,VALID,15,VALID,0.00585938,
2009-10-20, 00:51:04,VALID,1005.35,VALID,0,VALID,93.9725,VALID,0,VALID,24.0539,VALID,15,VALID,0.176953,
2009-10-20, 00:52:04,VALID,1005.35,VALID,0,VALID,94.0031,VALID,0,VALID,24.0539,VALID,15,VALID,0.317969,
2009-10-20, 00:53:04,VALID,1005.38,VALID,0,VALID,94.0259,VALID,0,VALID,24.0539,VALID,15,VALID,0.253516,
2009-10-20, 00:54:04,VALID,1005.38,VALID,0,VALID,94.0412,VALID,0,VALID,24.0345,VALID,15,VALID,0.249219,
2009-10-20, 00:55:04,VALID,1005.4,VALID,0,VALID,94.0641,VALID,0,VALID,24.0345,VALID,15,VALID,0.170312,
2009-10-20, 00:56:04,VALID,1005.39,VALID,0,VALID,94.0641,VALID,0,VALID,24.0132,VALID,15,VALID,0.253516,
2009-10-20, 00:57:04,VALID,1005.4,VALID,0,VALID,94.087,VALID,0,VALID,23.9937,VALID,15,VALID,0.3375,
2009-10-20, 00:58:04,VALID,1005.38,VALID,0,VALID,94.1022,VALID,0,VALID,23.9937,VALID,15,VALID,0.31875,
2009-10-20, 00:59:04,VALID,1005.37,VALID,0,VALID,94.1404,VALID,0,VALID,23.9937,VALID,15,VALID,0.192188,
2009-10-20, 01:00:04,VALID,1005.35,VALID,0,VALID,94.1862,VALID,0,VALID,24.015,VALID,15,VALID,0.352344,
2009-10-20, 01:01:04,VALID,1005.35,VALID,0,VALID,94.2014,VALID,0,VALID,24.015,VALID,15,VALID,0.351172,
2009-10-20, 01:02:04,VALID,1005.33,VALID,0,VALID,94.2243,VALID,0,VALID,23.9955,VALID,15,VALID,0.133984,
2009-10-20, 01:03:04,VALID,1005.29,VALID,0,VALID,94.2624,VALID,0,VALID,23.9955,VALID,15,VALID,0.355859,
2009-10-20, 01:04:04,VALID,1005.28,VALID,0,VALID,94.2853,VALID,0,VALID,24.015,VALID,15,VALID,0.208984,
2009-10-20, 01:05:04,VALID,1005.26,VALID,0,VALID,94.354,VALID,0,VALID,24.015,VALID,15,VALID,0.0414063,
2009-10-20, 01:06:04,VALID,1005.29,VALID,0,VALID,94.3616,VALID,0,VALID,24.015,VALID,15,VALID,0,
2009-10-20, 01:07:04,VALID,1005.25,VALID,0,VALID,94.4227,VALID,0,VALID,23.9937,VALID,15,VALID,0,
2009-10-20, 01:08:04,VALID,1005.28,VALID,0,VALID,94.4303,VALID,0,VALID,24.015,VALID,15,VALID,0,
2009-10-20, 01:09:04,VALID,1005.33,VALID,0,VALID,94.4761,VALID,0,VALID,24.015,VALID,15,VALID,0,
2009-10-20, 01:10:04,VALID,1005.31,VALID,0,VALID,94.4761,VALID,0,VALID,23.9937,VALID,15,VALID,0,
2009-10-20, 01:11:04,VALID,1005.29,VALID,0,VALID,94.4989,VALID,0,VALID,23.9955,VALID,15,VALID,0,
2009-10-20, 01:12:04,VALID,1005.3,VALID,0,VALID,94.5066,VALID,0,VALID,23.9742,VALID,15,VALID,0,
2009-10-20, 01:13:04,VALID,1005.31,VALID,0,VALID,94.4913,VALID,0,VALID,23.9761,VALID,15,VALID,0,
2009-10-20, 01:14:04,VALID,1005.28,VALID,0,VALID,94.4913,VALID,0,VALID,23.9566,VALID,15,VALID,0,
2009-10-20, 01:15:04,VALID,1005.27,VALID,0,VALID,94.5218,VALID,0,VALID,23.9548,VALID,15,VALID,0,
2009-10-20, 01:16:04,VALID,1005.21,VALID,0,VALID,94.5447,VALID,0,VALID,23.9761,VALID,15,VALID,0.0234375,
2009-10-20, 01:17:04,VALID,1005.19,VALID,0,VALID,94.5981,VALID,0,VALID,23.9955,VALID,15,VALID,0.455859,
2009-10-20, 01:18:04,VALID,1005.16,VALID,0,VALID,94.6286,VALID,0,VALID,23.9742,VALID,15,VALID,0.495703,
2009-10-20, 01:19:04,VALID,1005.17,VALID,0,VALID,94.6668,VALID,0,VALID,23.9937,VALID,15,VALID,0.517578,
2009-10-20, 01:20:04,VALID,1005.16,VALID,0,VALID,94.6591,VALID,0,VALID,23.9742,VALID,15,VALID,0.380078,
2009-10-20, 01:21:04,VALID,1005.15,VALID,0,VALID,94.6744,VALID,0,VALID,23.9955,VALID,15,VALID,0.322266,
2009-10-20, 01:22:04,VALID,1005.13,VALID,0,VALID,94.6744,VALID,0,VALID,23.9955,VALID,15,VALID,0.231641,
2009-10-20, 01:23:04,VALID,1005.11,VALID,0,VALID,94.682,VALID,0,VALID,23.9761,VALID,15,VALID,0.242188,
2009-10-20, 01:24:04,VALID,1005.13,VALID,0,VALID,94.682,VALID,0,VALID,23.9548,VALID,15,VALID,0.053125,
2009-10-20, 01:25:04,VALID,1005.14,VALID,0,VALID,94.6744,VALID,0,VALID,23.9371,VALID,15,VALID,0.357812,
2009-10-20, 01:26:04,VALID,1005.13,VALID,0,VALID,94.682,VALID,0,VALID,23.9177,VALID,15,VALID,0.40625,
2009-10-20, 01:27:04,VALID,1005.11,VALID,0,VALID,94.6591,VALID,0,VALID,23.8982,VALID,15,VALID,0.338672,
2009-10-20, 01:28:04,VALID,1005.12,VALID,0,VALID,94.6363,VALID,0,VALID,23.8769,VALID,15,VALID,0.283594,
2009-10-20, 01:29:04,VALID,1005.11,VALID,0,VALID,94.6515,VALID,0.100563,VALID,23.8769,VALID,15,VALID,0.359375,
2009-10-20, 01:30:04,VALID,1005.08,VALID,0,VALID,94.6363,VALID,0.100563,VALID,23.8362,VALID,15,VALID,0.253906,
2009-10-20, 01:31:04,VALID,1005.07,VALID,0,VALID,94.6286,VALID,0.100563,VALID,23.8575,VALID,15,VALID,0.332031,
2009-10-20, 01:32:04,VALID,1005.07,VALID,0,VALID,94.6591,VALID,0.100563,VALID,23.8575,VALID,15,VALID,0.364844,
2009-10-20, 01:33:04,VALID,1005.06,VALID,0,VALID,94.682,VALID,0.100563,VALID,23.838,VALID,15,VALID,0.2,
2009-10-20, 01:34:04,VALID,1005.02,VALID,0,VALID,94.6591,VALID,0.100563,VALID,23.838,VALID,15,VALID,0.160547,
2009-10-20, 01:35:04,VALID,1005.01,VALID,0,VALID,94.6897,VALID,0.100563,VALID,23.8398,VALID,15,VALID,0.209375,
2009-10-20, 01:36:04,VALID,1004.99,VALID,0,VALID,94.6591,VALID,0.100563,VALID,23.7778,VALID,15,VALID,0.0246094,
2009-10-20, 01:37:04,VALID,1005,VALID,0,VALID,94.6668,VALID,0.100563,VALID,23.7796,VALID,15,VALID,0,
2009-10-20, 01:38:04,VALID,1004.99,VALID,0,VALID,94.6897,VALID,0,VALID,23.7796,VALID,15,VALID,0,
2009-10-20, 01:39:04,VALID,1004.99,VALID,0,VALID,94.6668,VALID,0.100563,VALID,23.7601,VALID,15,VALID,0,
2009-10-20, 01:40:04,VALID,1004.95,VALID,0,VALID,94.6668,VALID,0.100563,VALID,23.7407,VALID,15,VALID,0,
2009-10-20, 01:41:04,VALID,1004.98,VALID,0,VALID,94.6591,VALID,0.100563,VALID,23.7407,VALID,15,VALID,0,
2009-10-20, 01:42:04,VALID,1004.95,VALID,0,VALID,94.6897,VALID,0.100563,VALID,23.7601,VALID,44,VALID,0.353516,
2009-10-20, 01:43:04,VALID,1004.94,VALID,0,VALID,94.7507,VALID,0.100563,VALID,23.7778,VALID,44,VALID,0.294141,
2009-10-20, 01:44:04,VALID,1004.91,VALID,0,VALID,94.7812,VALID,0,VALID,23.8185,VALID,45,VALID,0.255078,
2009-10-20, 01:45:04,VALID,1004.91,VALID,0,VALID,94.8194,VALID,0,VALID,23.838,VALID,45,VALID,0.222266,
2009-10-20, 01:46:04,VALID,1004.93,VALID,0,VALID,94.8194,VALID,0,VALID,23.8575,VALID,45,VALID,0.342187,
2009-10-20, 01:47:04,VALID,1004.91,VALID,0,VALID,94.8651,VALID,0,VALID,23.8787,VALID,45,VALID,0,
2009-10-20, 01:48:04,VALID,1004.92,VALID,0,VALID,94.8422,VALID,0,VALID,23.8575,VALID,45,VALID,0,
2009-10-20, 01:49:04,VALID,1004.94,VALID,0,VALID,94.8728,VALID,0.100563,VALID,23.8769,VALID,45,VALID,0,
2009-10-20, 01:50:04,VALID,1004.94,VALID,0,VALID,94.8728,VALID,0.100563,VALID,23.8556,VALID,45,VALID,0.184766,
2009-10-20, 01:51:04,VALID,1004.92,VALID,0,VALID,94.8575,VALID,0,VALID,23.8769,VALID,45,VALID,0.535156,
2009-10-20, 01:52:04,VALID,1004.92,VALID,0,VALID,94.8499,VALID,0,VALID,23.8769,VALID,45,VALID,0.297266,
2009-10-20, 01:53:04,VALID,1004.88,VALID,0,VALID,94.8346,VALID,0,VALID,23.8575,VALID,45,VALID,0.217578,
2009-10-20, 01:54:04,VALID,1004.89,VALID,0,VALID,94.8117,VALID,0,VALID,23.8769,VALID,45,VALID,0.145313,
2009-10-20, 01:55:04,VALID,1004.88,VALID,0,VALID,94.8117,VALID,0,VALID,23.8575,VALID,45,VALID,0.253906,
2009-10-20, 01:56:04,VALID,1004.91,VALID,0,VALID,94.7583,VALID,0,VALID,23.8593,VALID,45,VALID,0.255469,
2009-10-20, 01:57:04,VALID,1004.91,VALID,0,VALID,94.7507,VALID,0,VALID,23.8787,VALID,45,VALID,0.00898437,
2009-10-20, 01:58:04,VALID,1004.92,VALID,0,VALID,94.7278,VALID,0,VALID,23.8593,VALID,45,VALID,0.246875,
2009-10-20, 01:59:04,VALID,1004.9,VALID,0,VALID,94.6897,VALID,0,VALID,23.838,VALID,45,VALID,0.179688,
2009-10-20, 02:00:04,VALID,1004.9,VALID,0,VALID,94.682,VALID,0,VALID,23.8185,VALID,45,VALID,0,
2009-10-20, 02:01:04,VALID,1004.91,VALID,0,VALID,94.6439,VALID,0,VALID,23.7991,VALID,45,VALID,0,
2009-10-20, 02:02:04,VALID,1004.91,VALID,0,VALID,94.6286,VALID,0,VALID,23.7991,VALID,45,VALID,0,
2009-10-20, 02:03:04,VALID,1004.89,VALID,0,VALID,94.6134,VALID,0,VALID,23.7796,VALID,45,VALID,0.0578125,
2009-10-20, 02:04:04,VALID,1004.87,VALID,0,VALID,94.5829,VALID,0,VALID,23.7407,VALID,45,VALID,0.298438,
2009-10-20, 02:05:04,VALID,1004.87,VALID,0,VALID,94.5752,VALID,0,VALID,23.7407,VALID,45,VALID,0.403906,
2009-10-20, 02:06:04,VALID,1004.84,VALID,0,VALID,94.5905,VALID,0,VALID,23.7619,VALID,45,VALID,0.274609,
2009-10-20, 02:07:04,VALID,1004.81,VALID,0,VALID,94.5829,VALID,0.100563,VALID,23.7601,VALID,45,VALID,0,
2009-10-20, 02:08:04,VALID,1004.79,VALID,0,VALID,94.621,VALID,0.100563,VALID,23.7601,VALID,45,VALID,0,
2009-10-20, 02:09:04,VALID,1004.79,VALID,0,VALID,94.621,VALID,0,VALID,23.7389,VALID,45,VALID,0,
2009-10-20, 02:10:04,VALID,1004.77,VALID,0,VALID,94.6439,VALID,0,VALID,23.7389,VALID,45,VALID,0,
2009-10-20, 02:11:04,VALID,1004.75,VALID,0,VALID,94.682,VALID,0,VALID,23.8203,VALID,45,VALID,0,
2009-10-20, 02:12:04,VALID,1004.74,VALID,0,VALID,94.6897,VALID,0.100563,VALID,23.7796,VALID,45,VALID,0,
2009-10-20, 02:13:04,VALID,1004.74,VALID,0,VALID,94.7278,VALID,0,VALID,23.8203,VALID,45,VALID,0.556641,
2009-10-20, 02:14:04,VALID,1004.73,VALID,0,VALID,94.7431,VALID,0,VALID,23.8203,VALID,41,VALID,0.488672,
2009-10-20, 02:15:04,VALID,1004.74,VALID,0,VALID,94.766,VALID,0,VALID,23.8611,VALID,39,VALID,0.481641,
2009-10-20, 02:16:04,VALID,1004.71,VALID,0,VALID,94.766,VALID,0,VALID,23.8203,VALID,38,VALID,0.573438,
2009-10-20, 02:17:04,VALID,1004.68,VALID,0,VALID,94.8041,VALID,0,VALID,23.8593,VALID,30,VALID,0.619922,
2009-10-20, 02:18:04,VALID,1004.68,VALID,0,VALID,94.8041,VALID,0,VALID,23.8787,VALID,30,VALID,0.516406,
2009-10-20, 02:19:04,VALID,1004.67,VALID,0,VALID,94.8117,VALID,0,VALID,23.9371,VALID,30,VALID,0.569141,
2009-10-20, 02:20:04,VALID,1004.64,VALID,0,VALID,94.8422,VALID,0,VALID,23.9761,VALID,24,VALID,0.6625,
2009-10-20, 02:21:04,VALID,1004.67,VALID,0,VALID,94.8575,VALID,0,VALID,24.0557,VALID,24,VALID,0.550391,
2009-10-20, 02:22:04,VALID,1004.67,VALID,0,VALID,94.827,VALID,0,VALID,24.0539,VALID,32,VALID,0.699609,
2009-10-20, 02:23:04,VALID,1004.65,VALID,0,VALID,94.8651,VALID,0,VALID,24.1513,VALID,41,VALID,0.611719,
2009-10-20, 02:24:04,VALID,1004.64,VALID,0,VALID,94.8956,VALID,0,VALID,24.2291,VALID,29,VALID,0.490234,
2009-10-20, 02:25:04,VALID,1004.66,VALID,0,VALID,94.8651,VALID,0,VALID,24.307,VALID,29,VALID,0.309766,
2009-10-20, 02:26:04,VALID,1004.66,VALID,0,VALID,94.8194,VALID,0,VALID,24.3673,VALID,29,VALID,0.287109,
2009-10-20, 02:27:04,VALID,1004.64,VALID,0,VALID,94.7202,VALID,0,VALID,24.3459,VALID,29,VALID,0.526563,
2009-10-20, 02:28:04,VALID,1004.64,VALID,0,VALID,94.5905,VALID,0,VALID,24.3636,VALID,30,VALID,0.393359,
2009-10-20, 02:29:04,VALID,1004.65,VALID,0,VALID,94.4761,VALID,0,VALID,24.4025,VALID,32,VALID,0.882813,
2009-10-20, 02:30:04,VALID,1004.64,VALID,0,VALID,94.3616,VALID,0,VALID,24.4414,VALID,32,VALID,0.659766,
2009-10-20, 02:31:04,VALID,1004.63,VALID,0,VALID,94.2319,VALID,0,VALID,24.4804,VALID,39,VALID,0.3375,
2009-10-20, 02:32:04,VALID,1004.62,VALID,0,VALID,94.0336,VALID,0,VALID,24.4998,VALID,39,VALID,0.472266,
2009-10-20, 02:33:04,VALID,1004.63,VALID,0,VALID,93.7971,VALID,0,VALID,24.4998,VALID,39,VALID,0.345313,
2009-10-20, 02:34:04,VALID,1004.62,VALID,0,VALID,93.6064,VALID,0,VALID,24.4609,VALID,39,VALID,0.304688,
2009-10-20, 02:35:04,VALID,1004.62,VALID,0,VALID,93.4233,VALID,0,VALID,24.4609,VALID,39,VALID,0,
2009-10-20, 02:36:04,VALID,1004.64,VALID,0,VALID,93.2783,VALID,0,VALID,24.422,VALID,39,VALID,0,
2009-10-20, 02:37:04,VALID,1004.65,VALID,0,VALID,93.2325,VALID,0.100563,VALID,24.4025,VALID,39,VALID,0,
2009-10-20, 02:38:04,VALID,1004.66,VALID,0,VALID,93.1334,VALID,0.100563,VALID,24.4043,VALID,59,VALID,0,
2009-10-20, 02:39:04,VALID,1004.64,VALID,0,VALID,93.1257,VALID,0.100563,VALID,24.3422,VALID,59,VALID,0,
2009-10-20, 02:40:04,VALID,1004.63,VALID,0,VALID,93.1639,VALID,0,VALID,24.3246,VALID,59,VALID,0,
2009-10-20, 02:41:04,VALID,1004.62,VALID,0,VALID,93.2402,VALID,0.100563,VALID,24.3246,VALID,56,VALID,0,
2009-10-20, 02:42:04,VALID,1004.58,VALID,0,VALID,93.2478,VALID,0.100563,VALID,24.3033,VALID,55,VALID,0,
2009-10-20, 02:43:04,VALID,1004.6,VALID,0,VALID,93.2859,VALID,0,VALID,24.307,VALID,55,VALID,0.147266,
2009-10-20, 02:44:04,VALID,1004.58,VALID,0,VALID,93.2631,VALID,0,VALID,24.2468,VALID,55,VALID,0.391797,
2009-10-20, 02:45:04,VALID,1004.56,VALID,0,VALID,93.2325,VALID,0,VALID,24.2273,VALID,55,VALID,0.132813,
2009-10-20, 02:46:04,VALID,1004.54,VALID,0,VALID,93.2478,VALID,0,VALID,24.1884,VALID,55,VALID,0.0179687,
2009-10-20, 02:47:04,VALID,1004.54,VALID,0,VALID,93.2859,VALID,0,VALID,24.1689,VALID,55,VALID,0.118359,
2009-10-20, 02:48:04,VALID,1004.53,VALID,0,VALID,93.3699,VALID,0,VALID,24.1707,VALID,55,VALID,0.0773437,
2009-10-20, 02:49:04,VALID,1004.5,VALID,0,VALID,93.4385,VALID,0,VALID,24.1494,VALID,55,VALID,0.214453,
2009-10-20, 02:50:04,VALID,1004.49,VALID,0,VALID,93.4614,VALID,0,VALID,24.1105,VALID,55,VALID,0,
2009-10-20, 02:51:04,VALID,1004.49,VALID,0,VALID,93.5224,VALID,0,VALID,24.1318,VALID,55,VALID,0.164844,
2009-10-20, 02:52:04,VALID,1004.48,VALID,0,VALID,93.5682,VALID,0,VALID,24.091,VALID,55,VALID,0,
2009-10-20, 02:53:04,VALID,1004.47,VALID,0,VALID,93.5758,VALID,0,VALID,24.0521,VALID,55,VALID,0.0492188,
2009-10-20, 02:54:04,VALID,1004.45,VALID,0,VALID,93.5606,VALID,0,VALID,24.0345,VALID,55,VALID,0.264844,
2009-10-20, 02:55:04,VALID,1004.48,VALID,0,VALID,93.5835,VALID,0,VALID,24.015,VALID,55,VALID,0.139062,
2009-10-20, 02:56:04,VALID,1004.47,VALID,0,VALID,93.675,VALID,0,VALID,23.9937,VALID,55,VALID,0.0316406,
2009-10-20, 02:57:04,VALID,1004.47,VALID,0,VALID,93.7208,VALID,0,VALID,23.9742,VALID,55,VALID,0,
2009-10-20, 02:58:04,VALID,1004.45,VALID,0,VALID,93.7971,VALID,0,VALID,23.9548,VALID,55,VALID,0.125,
2009-10-20, 02:59:04,VALID,1004.42,VALID,0,VALID,93.8352,VALID,0,VALID,23.9353,VALID,55,VALID,0,
2009-10-20, 03:00:04,VALID,1004.42,VALID,0,VALID,93.881,VALID,0,VALID,23.9371,VALID,55,VALID,0.122266,
2009-10-20, 03:01:04,VALID,1004.44,VALID,0,VALID,93.8886,VALID,0,VALID,23.8964,VALID,55,VALID,0.304688,
2009-10-20, 03:02:04,VALID,1004.44,VALID,0,VALID,93.9268,VALID,0,VALID,23.8769,VALID,55,VALID,0.438672,
2009-10-20, 03:03:04,VALID,1004.44,VALID,0,VALID,93.9725,VALID,0,VALID,23.8593,VALID,55,VALID,0.407031,
2009-10-20, 03:04:04,VALID,1004.48,VALID,0,VALID,94.0794,VALID,0,VALID,23.8769,VALID,54,VALID,0.492578,
2009-10-20, 03:05:04,VALID,1004.49,VALID,0,VALID,94.1709,VALID,0,VALID,23.8787,VALID,51,VALID,0.2875,
2009-10-20, 03:06:04,VALID,1004.49,VALID,0,VALID,94.2472,VALID,0,VALID,23.8593,VALID,51,VALID,0.376563,
2009-10-20, 03:07:04,VALID,1004.51,VALID,0,VALID,94.3158,VALID,0,VALID,23.838,VALID,50,VALID,0.326562,
2009-10-20, 03:08:04,VALID,1004.51,VALID,0,VALID,94.4303,VALID,0,VALID,23.8982,VALID,50,VALID,0,
2009-10-20, 03:09:04,VALID,1004.51,VALID,0,VALID,94.4455,VALID,0,VALID,23.8575,VALID,50,VALID,0,
2009-10-20, 03:10:04,VALID,1004.51,VALID,0,VALID,94.4379,VALID,0,VALID,23.838,VALID,50,VALID,0,
2009-10-20, 03:11:04,VALID,1004.52,VALID,0,VALID,94.4303,VALID,0,VALID,23.8185,VALID,50,VALID,0,
2009-10-20, 03:12:04,VALID,1004.55,VALID,0,VALID,94.4227,VALID,0.100563,VALID,23.8203,VALID,50,VALID,0,
2009-10-20, 03:13:04,VALID,1004.52,VALID,0,VALID,94.4379,VALID,0,VALID,23.8009,VALID,50,VALID,0,
2009-10-20, 03:14:04,VALID,1004.53,VALID,0,VALID,94.4303,VALID,0,VALID,23.7601,VALID,50,VALID,0,
2009-10-20, 03:15:04,VALID,1004.51,VALID,0,VALID,94.4303,VALID,0,VALID,23.7601,VALID,50,VALID,0,
2009-10-20, 03:16:04,VALID,1004.51,VALID,0,VALID,94.4608,VALID,0,VALID,23.7814,VALID,50,VALID,0.260156,
2009-10-20, 03:17:04,VALID,1004.5,VALID,0,VALID,94.4761,VALID,0,VALID,23.7407,VALID,50,VALID,0.214844,
2009-10-20, 03:18:04,VALID,1004.48,VALID,0,VALID,94.4761,VALID,0,VALID,23.7407,VALID,50,VALID,0.309375,
2009-10-20, 03:19:04,VALID,1004.5,VALID,0,VALID,94.4913,VALID,0,VALID,23.7619,VALID,50,VALID,0.0195313,
2009-10-20, 03:20:04,VALID,1004.48,VALID,0,VALID,94.5218,VALID,0,VALID,23.7407,VALID,50,VALID,0.10625,
2009-10-20, 03:21:04,VALID,1004.51,VALID,0,VALID,94.5218,VALID,0,VALID,23.7212,VALID,50,VALID,0,
2009-10-20, 03:22:04,VALID,1004.51,VALID,0,VALID,94.4913,VALID,0,VALID,23.6823,VALID,50,VALID,0,
2009-10-20, 03:23:04,VALID,1004.54,VALID,0,VALID,94.4837,VALID,0,VALID,23.6628,VALID,50,VALID,0,
2009-10-20, 03:24:04,VALID,1004.54,VALID,0,VALID,94.4761,VALID,0,VALID,23.6434,VALID,50,VALID,0,
2009-10-20, 03:25:04,VALID,1004.54,VALID,0,VALID,94.4913,VALID,0,VALID,23.6239,VALID,50,VALID,0,
2009-10-20, 03:26:04,VALID,1004.55,VALID,0,VALID,94.4913,VALID,0,VALID,23.6646,VALID,50,VALID,0,
2009-10-20, 03:27:04,VALID,1004.55,VALID,0,VALID,94.5142,VALID,0,VALID,23.6452,VALID,50,VALID,0,
2009-10-20, 03:28:04,VALID,1004.57,VALID,0,VALID,94.5295,VALID,0,VALID,23.6452,VALID,50,VALID,0,
2009-10-20, 03:29:04,VALID,1004.57,VALID,0,VALID,94.5523,VALID,0,VALID,23.6434,VALID,50,VALID,0,
2009-10-20, 03:30:04,VALID,1004.58,VALID,0,VALID,94.5981,VALID,0,VALID,23.6646,VALID,50,VALID,0,
2009-10-20, 03:31:04,VALID,1004.57,VALID,0,VALID,94.6134,VALID,0,VALID,23.6434,VALID,50,VALID,0,
2009-10-20, 03:32:04,VALID,1004.58,VALID,0,VALID,94.6439,VALID,0,VALID,23.6646,VALID,50,VALID,0,
2009-10-20, 03:33:04,VALID,1004.58,VALID,0,VALID,94.6591,VALID,0,VALID,23.6646,VALID,50,VALID,0,
2009-10-20, 03:34:04,VALID,1004.61,VALID,0,VALID,94.682,VALID,0,VALID,23.6434,VALID,50,VALID,0,
2009-10-20, 03:35:04,VALID,1004.61,VALID,0,VALID,94.7125,VALID,0,VALID,23.6841,VALID,50,VALID,0,
2009-10-20, 03:36:04,VALID,1004.59,VALID,0,VALID,94.766,VALID,0,VALID,23.6823,VALID,50,VALID,0,
2009-10-20, 03:37:04,VALID,1004.61,VALID,0,VALID,94.7888,VALID,0.100563,VALID,23.7407,VALID,50,VALID,0.242188,
2009-10-20, 03:38:04,VALID,1004.64,VALID,0,VALID,94.827,VALID,0,VALID,23.7814,VALID,50,VALID,0.41875,
2009-10-20, 03:39:04,VALID,1004.62,VALID,0,VALID,94.8651,VALID,0,VALID,23.8009,VALID,50,VALID,0.308594,
2009-10-20, 03:40:04,VALID,1004.67,VALID,0,VALID,94.9033,VALID,0,VALID,23.8398,VALID,50,VALID,0.365234,
2009-10-20, 03:41:04,VALID,1004.67,VALID,0,VALID,94.9033,VALID,0,VALID,23.8593,VALID,50,VALID,0.424609,
2009-10-20, 03:42:04,VALID,1004.71,VALID,0,VALID,94.9109,VALID,0,VALID,23.8787,VALID,50,VALID,0.212891,
2009-10-20, 03:43:04,VALID,1004.72,VALID,0,VALID,94.9033,VALID,0,VALID,23.8787,VALID,50,VALID,0.123047,
2009-10-20, 03:44:04,VALID,1004.71,VALID,0,VALID,94.8804,VALID,0,VALID,23.838,VALID,50,VALID,0.283594,
2009-10-20, 03:45:04,VALID,1004.76,VALID,0,VALID,94.8117,VALID,0,VALID,23.8221,VALID,50,VALID,0.226563,
2009-10-20, 03:46:04,VALID,1004.78,VALID,0,VALID,94.7812,VALID,0,VALID,23.8009,VALID,50,VALID,0.0121094,
2009-10-20, 03:47:04,VALID,1004.8,VALID,0,VALID,94.7507,VALID,0,VALID,23.7796,VALID,50,VALID,0.1375,
2009-10-20, 03:48:04,VALID,1004.78,VALID,0,VALID,94.7354,VALID,0,VALID,23.8027,VALID,50,VALID,0.242188,
2009-10-20, 03:49:04,VALID,1004.79,VALID,0,VALID,94.682,VALID,0,VALID,23.7814,VALID,50,VALID,0.238672,
2009-10-20, 03:50:04,VALID,1004.8,VALID,0,VALID,94.6973,VALID,0,VALID,23.7601,VALID,50,VALID,0.33125,
2009-10-20, 03:51:04,VALID,1004.79,VALID,0,VALID,94.7049,VALID,0,VALID,23.7814,VALID,50,VALID,0.340625,